PST,Max TemperatureF,Mean TemperatureF,Min TemperatureF,Max Dew PointF,MeanDew PointF,Min DewpointF,Max Humidity, Mean Humidity, Min Humidity, Max Sea Level PressureIn, Mean Sea Level PressureIn, Min Sea Level PressureIn, Max VisibilityMiles, Mean VisibilityMiles, Min VisibilityMiles, Max Wind SpeedMPH, Mean Wind SpeedMPH, Max Gust SpeedMPH,PrecipitationIn, CloudCover, Events, WindDirDegrees
2013-2-1,47,44,42,45,43,40,95,88,75,30.21,30.20,30.18,,,,30,18,,0.00,,,165
2013-2-2,48,46,43,44,42,39,93,85,72,30.20,30.12,30.06,,,,39,21,,0.00,,,183
2013-2-3,45,41,37,41,39,34,91,83,68,30.11,29.98,29.88,,,,30,14,,0.00,,,219
2013-2-4,46,40,35,45,39,34,97,91,65,30.01,29.74,29.32,,,,41,15,,0.00,,,178
2013-2-5,45,42,39,44,40,38,97,87,75,29.41,29.33,29.21,,,,47,26,,0.00,,,172
2013-2-6,44,42,39,39,38,36,98,83,71,29.69,29.55,29.42,,,,24,13,,0.00,,,156
2013-2-7,44,42,39,38,36,34,87,79,65,30.16,29.96,29.70,,,,12,8,,0.00,,,290
2013-2-8,49,46,42,43,40,36,90,81,69,30.18,30.10,30.04,,,,23,11,,0.00,,,206
2013-2-9,47,44,42,44,42,40,94,90,82,30.30,30.27,30.21,,,,7,4,,0.00,,,256
2013-2-10,48,46,43,45,40,36,94,82,70,30.32,30.25,30.21,,,,25,10,,0.00,,,217
2013-2-11,46,44,42,40,37,35,90,75,56,30.23,30.14,29.96,,,,28,8,,0.00,,,203
2013-2-12,47,44,40,42,38,31,90,76,62,30.25,29.91,29.73,,,,28,18,,0.00,,,248
2013-2-13,44,41,38,43,36,30,96,79,63,30.33,30.29,30.18,,,,29,11,,0.00,,,192
2013-2-14,53,48,43,46,44,42,96,89,73,30.26,30.22,30.17,,,,24,11,,0.00,,,173
2013-2-15,52,48,43,46,42,40,93,82,55,30.25,30.10,29.99,,,,32,19,,0.00,,,180
2013-2-16,45,42,38,42,35,31,94,75,56,30.30,30.16,29.99,,,,25,12,,0.00,,,305
2013-2-17,42,40,38,38,35,29,87,79,68,30.31,30.07,29.84,,,,25,12,,0.00,,,191
2013-2-18,44,41,38,39,38,37,93,86,77,29.83,29.74,29.68,,,,21,12,,0.00,,,212
2013-2-19,43,40,37,39,36,34,95,85,66,29.97,29.91,29.83,,,,21,7,,0.00,,,231
2013-2-20,44,40,37,38,35,32,94,79,54,29.84,29.72,29.45,,,,30,18,,0.00,,,213
2013-2-21,44,40,39,41,37,34,93,86,72,29.70,29.55,29.31,,,,32,12,,0.00,,,200
2013-2-22,46,42,38,41,36,29,88,79,64,29.77,29.29,29.08,,,,26,14,,0.00,,,256
2013-2-23,42,39,36,39,35,29,91,79,55,30.06,29.95,29.83,,,,28,13,,0.00,,,224
2013-2-24,42,40,38,39,36,32,94,85,69,29.90,29.85,29.81,,,,18,8,,0.00,,,300
2013-2-25,45,42,38,36,32,28,79,68,54,30.07,29.98,29.85,,,,33,12,,0.00,,,269
2013-2-26,44,42,39,41,37,33,91,81,67,29.88,29.77,29.66,,,,37,25,,0.00,,,179
2013-2-27,46,42,39,40,37,34,93,79,63,29.95,29.86,29.73,,,,63,21,,0.00,,,183
2013-2-28,46,44,41,44,39,35,96,83,59,30.00,29.78,29.53,,,,51,27,,0.00,,,218